Location: *
(57.8420°S, 159.8600°W)
Time: 13:02:51
(UTC+00:00)

CZ-4B R/B - Pass Details

Date: 18 May 2021
Orbit: 385 x 454 km, 97.6° (Epoch: 22 June)

Event Time Altitude Azimuth Distance (km) Brightness Sun altitude
Rises 05:05:54 0° 336° (NNW) 2,307 5.4 -20.5°
Reaches altitude 10° 05:08:20 10° 315° (NW) 1,468 4.7 -20.8°
Maximum altitude 05:10:30 17° 271° (W) 1,127 4.4 -21.1°
Drops below altitude 10° 05:12:42 10° 227° (SW) 1,504 4.6 -21.4°
Sets 05:15:14 0° 206° (SSW) 2,392 5.4 -21.7°
